1 Minute Report
Date Time Wind Direction Wind Speed Wind Gust Wind Variable Altimeter Temperature Dewpoint Relative Humidity Visibility Ceiling Precip Present Weather Density Alt Wind Chill Heat Index
18/01/20 14:58 220 13 19 N/A 30.03 36(F), 2(C) 27(F), -3(C) 69% 10 CLR N/A N/A N/A 27 F N/A 8076
18/01/20 14:57 220 15 19 N/A 30.03 36(F), 2(C) 27(F), -3(C) 69% 10 CLR N/A N/A N/A 27 F N/A 8075
18/01/20 14:56 220 14 19 N/A 30.03 36(F), 2(C) 27(F), -3(C) 69% 10 CLR N/A N/A N/A 27 F N/A 8074
18/01/20 14:55 220 12 18 N/A 30.03 36(F), 2(C) 27(F), -3(C) 69% 10 CLR N/A N/A N/A 28 F N/A 8073
18/01/20 14:54 220 13 18 N/A 30.03 36(F), 2(C) 27(F), -3(C) 69% 10 CLR N/A N/A N/A 27 F N/A 8072
18/01/20 14:53 220 14 18 N/A 30.03 36(F), 2(C) 27(F), -3(C) 69% 10 CLR N/A N/A N/A 27 F N/A 8071
18/01/20 14:52 220 14 18 N/A 30.03 36(F), 2(C) 27(F), -3(C) 69% 10 CLR N/A N/A N/A 27 F N/A 8070
18/01/20 14:51 220 13 18 N/A 30.03 36(F), 2(C) 27(F), -3(C) 69% 10 CLR N/A N/A N/A 27 F N/A 8069
18/01/20 14:50 220 13 18 N/A 30.03 36(F), 2(C) 27(F), -3(C) 69% 10 CLR N/A N/A N/A 27 F N/A 8068
18/01/20 14:49 220 13 18 N/A 30.02 36(F), 2(C) 27(F), -3(C) 69% 10 CLR N/A N/A N/A 27 F N/A 8067
18/01/20 14:48 220 13 18 N/A 30.02 36(F), 2(C) 27(F), -3(C) 69% 10 CLR N/A N/A N/A 27 F N/A 8066
18/01/20 14:47 220 14 18 N/A 30.02 36(F), 2(C) 27(F), -3(C) 69% 10 CLR N/A N/A N/A 27 F N/A 8065
18/01/20 14:46 220 14 18 N/A 30.02 36(F), 2(C) 27(F), -3(C) 69% 10 CLR N/A N/A N/A 27 F N/A 8064
18/01/20 14:45 220 12 17 N/A 30.02 36(F), 2(C) 27(F), -3(C) 69% 10 CLR N/A N/A N/A 28 F N/A 8063
18/01/20 14:44 220 12 17 N/A 30.02 36(F), 2(C) 27(F), -3(C) 69% 10 CLR N/A N/A N/A 28 F N/A 8062
18/01/20 14:43 220 13 17 N/A 30.02 36(F), 2(C) 27(F), -3(C) 69% 10 CLR N/A N/A N/A 27 F N/A 8061
18/01/20 14:42 220 12 17 N/A 30.02 36(F), 2(C) 27(F), -3(C) 69% 10 CLR N/A N/A N/A 28 F N/A 8060
18/01/20 14:41 220 11 N/A N/A 30.02 36(F), 2(C) 27(F), -3(C) 69% 10 CLR N/A N/A N/A 28 F N/A 8059
18/01/20 14:40 220 12 N/A N/A 30.02 36(F), 2(C) 27(F), -3(C) 69% 10 CLR N/A N/A N/A 28 F N/A 8058
18/01/20 14:39 220 12 N/A N/A 30.02 36(F), 2(C) 27(F), -3(C) 69% 10 CLR N/A N/A N/A 28 F N/A 8057
18/01/20 14:38 220 11 N/A N/A 30.02 36(F), 2(C) 27(F), -3(C) 69% 10 CLR N/A N/A N/A 28 F N/A 8056
18/01/20 14:37 220 11 N/A N/A 30.02 36(F), 2(C) 27(F), -3(C) 69% 10 CLR N/A N/A N/A 28 F N/A 8055
18/01/20 14:36 220 11 N/A N/A 30.02 36(F), 2(C) 27(F), -3(C) 69% 10 CLR N/A N/A N/A 28 F N/A 8054
18/01/20 14:35 220 12 N/A N/A 30.02 36(F), 2(C) 27(F), -3(C) 69% 10 CLR N/A N/A N/A 28 F N/A 8053
18/01/20 14:34 220 12 N/A N/A 30.02 36(F), 2(C) 27(F), -3(C) 69% 10 CLR N/A N/A N/A 28 F N/A 8052
18/01/20 14:33 220 14 N/A N/A 30.02 36(F), 2(C) 27(F), -3(C) 69% 10 CLR N/A N/A N/A 27 F N/A 8051
18/01/20 14:32 220 13 N/A N/A 30.02 36(F), 2(C) 27(F), -3(C) 69% 10 CLR N/A N/A N/A 27 F N/A 8050
18/01/20 14:31 210 12 N/A N/A 30.02 36(F), 2(C) 27(F), -3(C) 69% 10 CLR N/A N/A N/A 28 F N/A 8049
18/01/20 14:30 210 12 N/A N/A 30.02 36(F), 2(C) 26(F), -3(C) 69% 10 CLR N/A N/A N/A 28 F N/A 8048
18/01/20 14:29 210 12 N/A N/A 30.02 36(F), 2(C) 26(F), -3(C) 69% 10 CLR N/A N/A N/A 28 F N/A 8047
18/01/20 14:28 210 12 18 N/A 30.02 36(F), 2(C) 26(F), -3(C) 69% 10 CLR N/A N/A N/A 28 F N/A 8046
18/01/20 14:27 210 12 18 N/A 30.02 36(F), 2(C) 26(F), -3(C) 69% 10 CLR N/A N/A N/A 28 F N/A 8045
18/01/20 14:26 210 12 18 N/A 30.02 36(F), 2(C) 26(F), -3(C) 69% 10 CLR N/A N/A N/A 28 F N/A 8044
18/01/20 14:25 210 13 18 N/A 30.02 36(F), 2(C) 26(F), -3(C) 69% 10 CLR N/A N/A N/A 27 F N/A 8043
18/01/20 14:24 210 14 18 N/A 30.01 36(F), 2(C) 26(F), -3(C) 69% 10 CLR N/A N/A N/A 27 F N/A 8042
18/01/20 14:23 210 13 18 N/A 30.01 36(F), 2(C) 26(F), -3(C) 69% 10 CLR N/A N/A N/A 27 F N/A 8041
18/01/20 14:22 220 12 18 N/A 30.01 35(F), 2(C) 26(F), -3(C) 69% 10 CLR N/A N/A N/A 27 F N/A 8040
18/01/20 14:21 220 12 18 N/A 30.01 35(F), 2(C) 26(F), -3(C) 69% 10 CLR N/A N/A N/A 27 F N/A 8039
18/01/20 14:20 210 13 18 N/A 30.01 35(F), 2(C) 26(F), -3(C) 69% 10 CLR N/A N/A N/A 26 F N/A 8038
18/01/20 14:19 210 14 18 N/A 30.01 35(F), 2(C) 26(F), -3(C) 69% 10 CLR N/A N/A N/A 26 F N/A 8037
18/01/20 14:18 210 13 N/A N/A 30.01 35(F), 2(C) 26(F), -3(C) 69% 10 CLR N/A N/A N/A 26 F N/A 8036
18/01/20 14:17 210 12 N/A N/A 30.01 35(F), 2(C) 26(F), -3(C) 69% 10 CLR N/A N/A N/A 27 F N/A 8035
18/01/20 14:16 210 13 N/A N/A 30.01 35(F), 2(C) 26(F), -3(C) 69% 10 CLR N/A N/A N/A 26 F N/A 8034
18/01/20 14:15 210 12 N/A N/A 30.01 35(F), 2(C) 26(F), -3(C) 69% 10 CLR N/A N/A N/A 27 F N/A 8033
18/01/20 14:14 210 12 N/A N/A 30.01 35(F), 2(C) 26(F), -3(C) 69% 10 CLR N/A N/A N/A 27 F N/A 8032
18/01/20 14:13 210 12 N/A N/A 30.01 35(F), 2(C) 26(F), -3(C) 69% 10 CLR N/A N/A N/A 27 F N/A 8031
18/01/20 14:12 210 11 N/A N/A 30.01 35(F), 2(C) 26(F), -3(C) 69% 10 CLR N/A N/A N/A 27 F N/A 8030
18/01/20 14:11 220 10 N/A N/A 30.01 35(F), 2(C) 26(F), -3(C) 69% 10 CLR N/A N/A N/A 27 F N/A 8029
18/01/20 14:10 220 11 N/A N/A 30.01 35(F), 2(C) 26(F), -3(C) 69% 10 CLR N/A N/A N/A 27 F N/A 8028
18/01/20 14:09 220 12 N/A N/A 30.01 35(F), 2(C) 26(F), -3(C) 69% 10 CLR N/A N/A N/A 27 F N/A 8027
18/01/20 14:08 210 12 N/A N/A 30.01 35(F), 2(C) 26(F), -3(C) 69% 10 CLR N/A N/A N/A 27 F N/A 8026
18/01/20 14:07 210 11 N/A N/A 30.01 35(F), 2(C) 26(F), -3(C) 69% 10 CLR N/A N/A N/A 27 F N/A 8025
18/01/20 14:06 220 11 N/A N/A 30.01 35(F), 2(C) 26(F), -3(C) 69% 10 CLR N/A N/A N/A 27 F N/A 8024
18/01/20 14:05 210 11 N/A N/A 30.01 35(F), 2(C) 26(F), -3(C) 69% 10 CLR N/A N/A N/A 27 F N/A 8023
18/01/20 14:04 210 12 N/A N/A 30.01 35(F), 2(C) 26(F), -3(C) 69% 10 CLR N/A N/A N/A 27 F N/A 8022
18/01/20 14:03 210 12 N/A N/A 30.01 34(F), 1(C) 26(F), -3(C) 75% 10 CLR N/A N/A N/A 25 F N/A 8021
18/01/20 14:02 210 12 N/A N/A 30.01 34(F), 1(C) 26(F), -3(C) 75% 10 CLR N/A N/A N/A 25 F N/A 8020
18/01/20 14:01 220 12 N/A N/A 30.01 34(F), 1(C) 26(F), -3(C) 75% 10 CLR N/A N/A N/A 25 F N/A 8019
18/01/20 14:00 210 11 15 N/A 30.01 34(F), 1(C) 26(F), -3(C) 75% 10 CLR N/A N/A N/A 26 F N/A 8018
18/01/20 13:59 210 10 15 N/A 30.01 34(F), 1(C) 26(F), -3(C) 75% 10 CLR N/A N/A N/A 26 F N/A 8017
18/01/20 13:58 210 10 15 N/A 30.01 34(F), 1(C) 26(F), -3(C) 75% 10 CLR N/A N/A N/A 26 F N/A 8016
18/01/20 13:57 210 11 15 N/A 30.01 34(F), 1(C) 26(F), -3(C) 75% 10 CLR N/A N/A N/A 26 F N/A 8015
18/01/20 13:56 210 11 15 N/A 30.01 34(F), 1(C) 26(F), -3(C) 75% 10 CLR N/A N/A N/A 26 F N/A 8014
18/01/20 13:55 210 11 15 N/A 30.01 34(F), 1(C) 26(F), -3(C) 75% 10 CLR N/A N/A N/A 26 F N/A 8013
18/01/20 13:54 210 11 15 N/A 30.01 34(F), 1(C) 26(F), -3(C) 75% 10 CLR N/A N/A N/A 26 F N/A 8012
18/01/20 13:53 210 10 15 N/A 30.01 34(F), 1(C) 26(F), -3(C) 75% 10 CLR N/A N/A N/A 26 F N/A 8011
18/01/20 13:52 220 11 15 N/A 30.00 34(F), 1(C) 26(F), -3(C) 75% 10 CLR N/A N/A N/A 26 F N/A 8010
18/01/20 13:51 210 12 15 N/A 30.00 34(F), 1(C) 26(F), -3(C) 75% 10 CLR N/A N/A N/A 25 F N/A 8009
18/01/20 13:50 210 10 15 N/A 30.00 34(F), 1(C) 26(F), -3(C) 75% 10 CLR N/A N/A N/A 26 F N/A 8008
18/01/20 13:49 210 10 N/A N/A 30.00 34(F), 1(C) 26(F), -3(C) 75% 10 CLR N/A N/A N/A 26 F N/A 8007
18/01/20 13:48 210 11 N/A N/A 30.00 34(F), 1(C) 26(F), -3(C) 75% 10 CLR N/A N/A N/A 26 F N/A 8006
18/01/20 13:47 210 11 N/A N/A 30.00 34(F), 1(C) 26(F), -3(C) 75% 10 CLR N/A N/A N/A 26 F N/A 8005
18/01/20 13:46 210 10 N/A N/A 30.00 34(F), 1(C) 26(F), -3(C) 75% 10 CLR N/A N/A N/A 26 F N/A 8004
18/01/20 13:45 210 11 N/A N/A 30.00 34(F), 1(C) 26(F), -3(C) 75% 10 CLR N/A N/A N/A 26 F N/A 8003
18/01/20 13:44 220 11 N/A N/A 30.00 34(F), 1(C) 26(F), -3(C) 75% 10 CLR N/A N/A N/A 26 F N/A 8002
18/01/20 13:43 210 12 N/A N/A 30.00 34(F), 1(C) 26(F), -3(C) 75% 10 CLR N/A N/A N/A 25 F N/A 8001
18/01/20 13:42 210 11 N/A N/A 30.00 34(F), 1(C) 26(F), -3(C) 75% 10 CLR N/A N/A N/A 26 F N/A 8000
18/01/20 13:41 210 10 N/A N/A 30.00 34(F), 1(C) 26(F), -3(C) 75% 10 CLR N/A N/A N/A 26 F N/A 7999
18/01/20 13:40 210 09 N/A N/A 30.00 34(F), 1(C) 26(F), -3(C) 75% 10 CLR N/A N/A N/A 27 F N/A 7998
18/01/20 13:39 220 09 N/A N/A 30.00 34(F), 1(C) 26(F), -3(C) 75% 10 CLR N/A N/A N/A 27 F N/A 7997
18/01/20 13:38 210 09 N/A N/A 30.00 34(F), 1(C) 26(F), -3(C) 75% 10 CLR N/A N/A N/A 27 F N/A 7996
18/01/20 13:37 210 10 N/A N/A 30.00 34(F), 1(C) 26(F), -3(C) 75% 10 CLR N/A N/A N/A 26 F N/A 7995
18/01/20 13:36 210 11 N/A N/A 30.00 34(F), 1(C) 26(F), -3(C) 75% 10 CLR N/A N/A N/A 26 F N/A 7994
18/01/20 13:35 210 10 N/A N/A 30.00 34(F), 1(C) 26(F), -3(C) 75% 10 CLR N/A N/A N/A 26 F N/A 7993
18/01/20 13:34 210 11 N/A N/A 30.00 34(F), 1(C) 26(F), -3(C) 75% 10 CLR N/A N/A N/A 26 F N/A 7992
18/01/20 13:33 220 12 N/A N/A 30.00 34(F), 1(C) 26(F), -3(C) 75% 10 CLR N/A N/A N/A 25 F N/A 7991
18/01/20 13:32 220 12 N/A N/A 30.00 34(F), 1(C) 26(F), -3(C) 75% 10 CLR N/A N/A N/A 25 F N/A 7990
18/01/20 13:31 220 12 N/A N/A 30.00 34(F), 1(C) 26(F), -3(C) 75% 10 CLR N/A N/A N/A 25 F N/A 7989
18/01/20 13:30 210 11 N/A N/A 30.00 34(F), 1(C) 26(F), -3(C) 75% 10 CLR N/A N/A N/A 26 F N/A 7988
18/01/20 13:29 210 12 N/A N/A 30.00 34(F), 1(C) 26(F), -3(C) 75% 10 CLR N/A N/A N/A 25 F N/A 7987
18/01/20 13:28 210 12 N/A N/A 30.00 34(F), 1(C) 26(F), -3(C) 75% 10 CLR N/A N/A N/A 25 F N/A 7986
18/01/20 13:27 210 12 N/A N/A 30.00 34(F), 1(C) 26(F), -3(C) 75% 10 CLR N/A N/A N/A 25 F N/A 7985
18/01/20 13:26 210 12 N/A N/A 29.99 34(F), 1(C) 26(F), -3(C) 75% 10 CLR N/A N/A N/A 25 F N/A 7984
18/01/20 13:25 210 12 N/A N/A 29.99 34(F), 1(C) 26(F), -3(C) 75% 10 CLR N/A N/A N/A 25 F N/A 7983
18/01/20 13:24 220 11 N/A N/A 29.99 34(F), 1(C) 26(F), -3(C) 75% 10 CLR N/A N/A N/A 26 F N/A 7982
18/01/20 13:23 210 10 N/A N/A 29.99 34(F), 1(C) 26(F), -3(C) 75% 10 CLR N/A N/A N/A 26 F N/A 7981
18/01/20 13:22 210 10 N/A N/A 29.99 34(F), 1(C) 26(F), -3(C) 75% 10 CLR N/A N/A N/A 26 F N/A 7980
18/01/20 13:21 210 10 N/A N/A 29.99 34(F), 1(C) 26(F), -3(C) 75% 10 CLR N/A N/A N/A 26 F N/A 7979
18/01/20 13:20 210 10 N/A N/A 29.99 34(F), 1(C) 26(F), -3(C) 75% 10 CLR N/A N/A N/A 26 F N/A 7978
18/01/20 13:19 210 11 N/A N/A 29.99 34(F), 1(C) 26(F), -3(C) 75% 10 CLR N/A N/A N/A 26 F N/A 7977
18/01/20 13:18 210 11 N/A N/A 29.99 34(F), 1(C) 26(F), -3(C) 75% 10 CLR N/A N/A N/A 26 F N/A 7976
18/01/20 13:17 210 11 N/A N/A 29.99 33(F), 1(C) 26(F), -3(C) 75% 10 CLR N/A N/A N/A 24 F N/A 7975
18/01/20 13:16 210 10 N/A N/A 29.99 33(F), 1(C) 26(F), -3(C) 75% 10 CLR N/A N/A N/A 25 F N/A 7974
18/01/20 13:15 210 09 N/A N/A 29.99 33(F), 1(C) 26(F), -3(C) 75% 10 CLR N/A N/A N/A 25 F N/A 7973
18/01/20 13:14 210 10 N/A N/A 29.99 33(F), 1(C) 26(F), -3(C) 75% 10 CLR N/A N/A N/A 25 F N/A 7972
18/01/20 13:13 210 11 N/A N/A 29.99 33(F), 1(C) 26(F), -3(C) 75% 10 CLR N/A N/A N/A 24 F N/A 7971
18/01/20 13:12 210 11 N/A N/A 29.99 33(F), 1(C) 26(F), -3(C) 75% 10 CLR N/A N/A N/A 24 F N/A 7970
18/01/20 13:11 210 10 N/A N/A 29.99 33(F), 1(C) 26(F), -3(C) 75% 10 CLR N/A N/A N/A 25 F N/A 7969
18/01/20 13:10 210 11 N/A N/A 29.99 33(F), 1(C) 26(F), -3(C) 75% 10 CLR N/A N/A N/A 24 F N/A 7968
18/01/20 13:09 210 10 N/A N/A 29.99 33(F), 1(C) 26(F), -3(C) 75% 10 CLR N/A N/A N/A 25 F N/A 7967
18/01/20 13:08 220 10 N/A N/A 29.99 33(F), 1(C) 26(F), -3(C) 75% 10 CLR N/A N/A N/A 25 F N/A 7966
18/01/20 13:07 220 10 N/A N/A 29.99 34(F), 1(C) 26(F), -3(C) 75% 10 CLR N/A N/A N/A 26 F N/A 7965
18/01/20 13:06 220 09 N/A N/A 29.99 34(F), 1(C) 26(F), -3(C) 75% 10 CLR N/A N/A N/A 27 F N/A 7964
18/01/20 13:05 220 09 15 N/A 29.99 34(F), 1(C) 26(F), -3(C) 75% 10 CLR N/A N/A N/A 27 F N/A 7963
18/01/20 13:04 220 10 15 N/A 29.99 34(F), 1(C) 26(F), -3(C) 75% 10 CLR N/A N/A N/A 26 F N/A 7962
18/01/20 13:03 220 11 15 N/A 29.99 34(F), 1(C) 26(F), -3(C) 75% 10 CLR N/A N/A N/A 26 F N/A 7961
18/01/20 13:02 220 11 15 N/A 29.98 34(F), 1(C) 26(F), -3(C) 75% 10 CLR N/A N/A N/A 26 F N/A 7960
18/01/20 13:01 210 11 15 N/A 29.98 33(F), 1(C) 26(F), -3(C) 75% 10 CLR N/A N/A N/A 24 F N/A 7959
18/01/20 13:00 220 11 15 N/A 29.98 33(F), 1(C) 26(F), -3(C) 75% 10 CLR N/A N/A N/A 24 F N/A 7958
18/01/20 12:59 220 10 15 N/A 29.98 33(F), 1(C) 26(F), -3(C) 75% 10 CLR N/A N/A N/A 25 F N/A 7957
18/01/20 12:58 210 10 15 N/A 29.98 33(F), 1(C) 26(F), -3(C) 75% 10 CLR N/A N/A N/A 25 F N/A 7956